Regional Weather Roundup
Issued by NWS

Home | Current Version | Previous Version | Graphics & Text | Print | Product List | Glossary On
Versions: 1 2 3 4 5 6 7 8 9 10 11 12 13 14 15 16 17 18 19 20 21 22 23 24 25 26 27 28 29 30 31 32 33 34 35 36 37 38 39 40 41 42 43 44 45 46 47 48 49 50
000
ASUS43 KBIS 250710
RWRND
NORTH DAKOTA REGIONAL WEATHER ROUNDUP
NATIONAL WEATHER SERVICE EASTERN NORTH DAKOTA/GRAND FORKS ND
200 AM CDT SUN JUN 25 2017

  NOTE: "FAIR" INDICATES FEW OR NO CLOUDS BELOW 12,000 FEET WITH NO
  SIGNIFICANT WEATHER AND/OR OBSTRUCTIONS TO VISIBILITY.

NDZ001>003-009>011-017-250800-
...NORTHWEST NORTH DAKOTA...

CITY           SKY/WX    TMP DP  RH WIND       PRES   REMARKS
WILLISTON      MOCLDY    50  40  68 CALM      30.26F
MINOT          MOCLDY    49  39  68 SW9       30.24S
MINOT AFB      MOCLDY    46  41  82 CALM      30.24R
$$

NDZ018>021-031>035-040>046-250800-
...SOUTHWEST NORTH DAKOTA...

CITY           SKY/WX    TMP DP  RH WIND       PRES   REMARKS
BISMARCK       FAIR      43  39  86 SW3       30.29F
DICKINSON      FAIR      40  32  73 S7        30.29S
GARRISON         N/A     40  36  86 CALM      30.26S
HETTINGER      FAIR      38  30  73 N3        30.34S
$$

NDZ004>008-012>016-024-026-027-054-250800-
...NORTHEAST NORTH DAKOTA...

CITY           SKY/WX    TMP DP  RH WIND       PRES   REMARKS
GRAND FORKS    FAIR      45  43  93 W6        30.18S
GRAND FORKS AF FAIR      46  41  85 NW6       30.19F
DEVILS LAKE    FAIR      45  43  93 NW6       30.23F
$$

NDZ022-023-025-028>030-036>039-047>053-250800-
...SOUTHEAST NORTH DAKOTA...

CITY           SKY/WX    TMP DP  RH WIND       PRES   REMARKS
JAMESTOWN      FAIR      47  44  90 NW8       30.23S
FARGO          CLOUDY    54  44  69 NW12      30.18S
WAHPETON       CLOUDY    48  41  76 W8        30.19S
$$




USA.gov is the U.S. government's official web portal to all federal, state and local government web resources and services.